Change the Weather History Date:

Friday, May 16, 2014

  Actual Average Record
Temperature  
Mean Temperature 42 °F -  
Max Temperature 45 °F 72 °F 86 °F (1977)
Min Temperature 40 °F 46 °F 35 °F (1984)
Degree Days  
Heating Degree Days 23    
Moisture  
Dew Point 39 °F    
Average Humidity 89    
Maximum Humidity 97    
Minimum Humidity 81    
Precipitation  
Precipitation 0.24 in - - ()
Sea Level Pressure  
Sea Level Pressure 30.03 in    
Wind  
Wind Speed 9 mph (NE)    
Max Wind Speed 17 mph    
Max Gust Speed 21 mph    
Visibility 10 miles    
Events Rain , Thunderstorm    
Averages and records for this station are not official NWS values.
T = Trace of Precipitation, MM = Missing Value Source: NWS Daily Summary

Daily Weather History Graph

Daily Weather History Graph

Search for Another Location

Airport or City:

Trip Planner

Search our weather history database for the weather conditions in past years. The results will help you decide how hot, cold, wet, or windy it might be!

Date:

Astronomy

May. 16, 2014 Rise Set
Actual Time 5:32 AM CDT 8:03 PM CDT
Civil Twilight 5:01 AM CDT 8:35 PM CDT
Nautical Twilight 4:22 AM CDT 9:14 PM CDT
Astronomical Twilight 3:38 AM CDT 9:58 PM CDT
Moon 10:10 PM CDT (5/16) 7:13 AM CDT (5/16)
Length of Visible Light 15h 34m
Length of Day
14h 31m
Waning Gibbous, 95% of the Moon is Illuminated
May 16
Waning Gibbous
May 21
Last Quarter
May 28
New
Jun 5
First Quarter
Jun 12
Full

Hourly Weather History & Observations

Time (CDT) Temp. Windchill Dew Point Humidity Pressure Visibility Wind Dir Wind Speed Gust Speed Precip Events Conditions
12:15 AM 43.9 °F 39.9 °F 38.3 °F 81% 30.03 in 10.0 mi ENE 6.9 mph - N/A   Overcast
12:35 AM 43.7 °F 39.7 °F 38.7 °F 82% 30.03 in 10.0 mi NE 6.9 mph - N/A   Light Drizzle
12:55 AM 43.3 °F 39.2 °F 38.5 °F 83% 30.02 in 10.0 mi NE 6.9 mph - N/A   Light Drizzle
1:15 AM 43.0 °F 38.8 °F 38.5 °F 84% 30.02 in 10.0 mi NE 6.9 mph - N/A Rain Light Rain
1:35 AM 42.6 °F 37.8 °F 38.5 °F 85% 30.01 in 10.0 mi ENE 8.1 mph - N/A   Light Drizzle
1:55 AM 42.4 °F 37.0 °F 38.3 °F 85% 30.00 in 10.0 mi ENE 9.2 mph - N/A   Overcast
2:15 AM 42.1 °F 37.1 °F 38.7 °F 88% 30.00 in 10.0 mi ENE 8.1 mph - N/A   Light Drizzle
2:35 AM 41.9 °F 36.9 °F 38.8 °F 89% 29.99 in 10.0 mi ENE 8.1 mph - N/A   Overcast
2:55 AM 41.9 °F 37.5 °F 38.7 °F 88% 29.99 in 10.0 mi ENE 6.9 mph - N/A Rain Light Rain
3:15 AM 41.5 °F 37.1 °F 38.7 °F 89% 29.99 in 10.0 mi ENE 6.9 mph - N/A   Overcast
3:35 AM 41.5 °F 36.4 °F 38.8 °F 90% 29.98 in 10.0 mi ENE 8.1 mph - N/A   Overcast
3:55 AM 41.7 °F 36.7 °F 38.7 °F 89% 29.98 in 10.0 mi East 8.1 mph - N/A   Light Drizzle
4:15 AM 41.5 °F 35.9 °F 38.8 °F 90% 29.97 in 10.0 mi ENE 9.2 mph - N/A   Overcast
4:35 AM 41.5 °F 35.9 °F 38.5 °F 89% 29.97 in 10.0 mi East 9.2 mph - N/A   Overcast
4:55 AM 41.5 °F 35.4 °F 39.0 °F 91% 29.97 in 10.0 mi East 10.4 mph - N/A Rain Light Rain
5:15 AM 41.4 °F 34.7 °F 39.4 °F 93% 29.97 in 10.0 mi ENE 11.5 mph - 0.01 in Rain Light Rain
5:35 AM 41.2 °F 33.7 °F 39.4 °F 93% 29.97 in 7.0 mi ENE 13.8 mph 17.3 mph 0.03 in Rain Rain
5:55 AM 41.0 °F 34.7 °F 39.4 °F 94% 29.97 in 7.0 mi ENE 10.4 mph - 0.05 in Rain Light Rain
6:15 AM 41.0 °F 34.3 °F 39.4 °F 94% 29.98 in 5.0 mi ENE 11.5 mph - 0.03 in Rain Light Rain
6:35 AM 40.6 °F 32.7 °F 39.7 °F 97% 29.98 in 7.0 mi ENE 15.0 mph - 0.05 in Rain Light Rain
6:55 AM 41.0 °F 33.9 °F 40.1 °F 97% 29.98 in 7.0 mi ENE 12.7 mph - 0.06 in   Light Drizzle
7:15 AM 41.0 °F 33.5 °F 39.9 °F 96% 29.98 in 10.0 mi ENE 13.8 mph 18.4 mph N/A   Overcast
7:35 AM 41.2 °F 33.4 °F 40.1 °F 96% 29.99 in 10.0 mi ENE 15.0 mph 19.6 mph N/A Rain Light Rain
7:55 AM 41.4 °F 34.7 °F 40.3 °F 96% 29.99 in 10.0 mi ENE 11.5 mph - N/A Rain Light Rain
8:15 AM 41.4 °F 34.7 °F 40.3 °F 96% 29.99 in 10.0 mi ENE 11.5 mph - N/A Rain Light Rain
8:35 AM 41.4 °F 33.0 °F 40.1 °F 95% 29.99 in 10.0 mi ENE 17.3 mph - 0.01 in   Light Drizzle
8:55 AM 41.5 °F 34.2 °F 39.9 °F 94% 29.99 in 10.0 mi ENE 13.8 mph - 0.01 in   Overcast
9:15 AM 41.9 °F 34.0 °F 40.1 °F 93% 29.99 in 10.0 mi ENE 16.1 mph - N/A   Overcast
9:35 AM 42.1 °F 34.9 °F 39.9 °F 92% 29.99 in 10.0 mi ENE 13.8 mph 20.7 mph N/A   Overcast
9:55 AM 42.3 °F 35.9 °F 40.1 °F 92% 29.99 in 10.0 mi ENE 11.5 mph - N/A   Overcast
10:15 AM 42.4 °F 35.3 °F 40.3 °F 92% 30.00 in 10.0 mi ENE 13.8 mph - N/A Rain Light Rain
10:35 AM 42.4 °F 37.5 °F 40.3 °F 92% 30.00 in 7.0 mi ENE 8.1 mph - N/A Rain Rain
10:55 AM 42.4 °F 37.0 °F 40.3 °F 92% 30.00 in 10.0 mi East 9.2 mph - 0.01 in   Drizzle
11:15 AM 43.0 °F 37.7 °F 40.5 °F 91% 30.00 in 10.0 mi East 9.2 mph - 0.01 in Rain Light Rain
11:35 AM 43.5 °F 38.3 °F 41.2 °F 91% 30.00 in 5.0 mi ENE 9.2 mph - 0.02 in Rain Light Rain
11:55 AM 43.7 °F 37.7 °F 41.5 °F 92% 30.00 in 10.0 mi ENE 11.5 mph - 0.05 in Rain Light Rain
12:15 PM 44.1 °F 37.7 °F 41.9 °F 92% 30.00 in 7.0 mi ENE 12.7 mph 16.1 mph 0.02 in Rain Light Rain
12:35 PM 44.1 °F 37.4 °F 41.5 °F 91% 30.00 in 10.0 mi ENE 13.8 mph - 0.03 in Rain Light Rain
12:55 PM 44.6 °F 39.7 °F 41.7 °F 90% 30.00 in 10.0 mi ENE 9.2 mph - 0.04 in Rain Light Rain
1:15 PM 44.6 °F 39.2 °F 41.9 °F 90% 30.00 in 10.0 mi NE 10.4 mph - 0.01 in Rain Light Rain
1:35 PM 44.2 °F 39.2 °F 41.9 °F 91% 30.00 in 10.0 mi NNE 9.2 mph - 0.01 in Rain Light Rain
1:55 PM 44.4 °F 40.0 °F 41.7 °F 90% 30.00 in 10.0 mi NNE 8.1 mph - 0.01 in   Light Drizzle
2:15 PM 43.7 °F 39.7 °F 40.8 °F 90% 30.01 in 10.0 mi North 6.9 mph - 0.01 in   Light Drizzle
2:35 PM 43.7 °F 39.7 °F 40.5 °F 88% 30.02 in 10.0 mi NNE 6.9 mph - 0.01 in   Overcast
2:55 PM 44.1 °F 38.6 °F 41.0 °F 89% 30.02 in 10.0 mi North 10.4 mph - 0.01 in   Overcast
3:15 PM 43.2 °F 38.4 °F 40.5 °F 90% 30.03 in 10.0 mi North 8.1 mph 16.1 mph N/A   Overcast
3:35 PM 42.8 °F 37.0 °F 39.6 °F 88% 30.03 in 10.0 mi North 10.4 mph 18.4 mph N/A   Overcast
3:55 PM 42.3 °F 36.3 °F 38.8 °F 88% 30.04 in 10.0 mi North 10.4 mph 18.4 mph N/A   Overcast
4:15 PM 42.3 °F 35.5 °F 38.7 °F 87% 30.04 in 10.0 mi NNE 12.7 mph 19.6 mph N/A Thunderstorm Overcast
4:35 PM 42.3 °F 35.1 °F 38.3 °F 86% 30.04 in 10.0 mi North 13.8 mph 18.4 mph N/A   Overcast
4:55 PM 42.4 °F 35.3 °F 37.8 °F 83% 30.04 in 10.0 mi North 13.8 mph 19.6 mph N/A   Overcast
5:15 PM 42.8 °F 37.0 °F 38.5 °F 85% 30.05 in 10.0 mi North 10.4 mph - N/A   Overcast
5:35 PM 42.3 °F 36.8 °F 37.9 °F 85% 30.05 in 10.0 mi North 9.2 mph 16.1 mph N/A   Overcast
5:55 PM 42.4 °F 36.5 °F 37.9 °F 84% 30.05 in 10.0 mi NNE 10.4 mph 17.3 mph N/A   Overcast
6:15 PM 42.3 °F 36.3 °F 37.4 °F 83% 30.06 in 10.0 mi North 10.4 mph - N/A   Overcast
6:35 PM 42.3 °F 37.9 °F 37.6 °F 83% 30.06 in 10.0 mi North 6.9 mph - N/A   Overcast
6:55 PM 42.1 °F 38.4 °F 37.0 °F 82% 30.07 in 10.0 mi NNE 5.8 mph - N/A   Overcast
7:15 PM 42.1 °F 37.1 °F 36.7 °F 81% 30.07 in 10.0 mi NNE 8.1 mph - N/A   Overcast
7:35 PM 42.1 °F 40.2 °F 36.5 °F 81% 30.08 in 10.0 mi North 3.5 mph - N/A   Overcast
7:55 PM 42.1 °F 40.2 °F 36.7 °F 81% 30.08 in 10.0 mi NNE 3.5 mph - N/A   Overcast
8:15 PM 41.9 °F 38.2 °F 37.2 °F 83% 30.09 in 10.0 mi NE 5.8 mph - N/A   Overcast
8:35 PM 41.5 °F 37.8 °F 37.6 °F 86% 30.09 in 10.0 mi NNE 5.8 mph - N/A   Overcast
8:55 PM 41.5 °F - 38.1 °F 88% 30.10 in 10.0 mi Calm Calm - N/A   Overcast
9:15 PM 41.5 °F - 37.8 °F 86% 30.11 in 10.0 mi Calm Calm - N/A   Overcast
9:35 PM 41.7 °F - 37.6 °F 85% 30.11 in 10.0 mi Calm Calm - N/A   Overcast
9:55 PM 41.9 °F 40.0 °F 37.6 °F 85% 30.12 in 10.0 mi West 3.5 mph - N/A   Overcast
10:15 PM 41.9 °F 40.0 °F 38.5 °F 88% 30.12 in 10.0 mi West 3.5 mph - N/A   Light Drizzle
10:35 PM 41.9 °F 39.0 °F 38.5 °F 88% 30.12 in 10.0 mi West 4.6 mph - N/A   Light Drizzle
10:55 PM 41.0 °F 38.0 °F 39.2 °F 93% 30.12 in 10.0 mi West 4.6 mph - N/A   Light Drizzle
11:15 PM 41.5 °F 38.6 °F 38.7 °F 89% 30.11 in 10.0 mi West 4.6 mph - N/A   Light Drizzle
11:35 PM 41.4 °F 39.4 °F 38.7 °F 90% 30.11 in 10.0 mi West 3.5 mph - N/A   Overcast
11:55 PM 41.4 °F 39.4 °F 38.7 °F 90% 30.11 in 10.0 mi West 3.5 mph - N/A   Overcast